Regional Weather Roundup
Issued by NWS Little Rock, AR

Home | Current Version | Previous Version | Graphics & Text | Print | Product List | Glossary On
Versions: 1 2 3 4 5 6 7 8 9 10 11 12 13 14 15 16 17 18 19 20 21 22 23 24 25 26 27 28
000
ASUS44 KLZK 042005
RWRLZK

WEATHER ROUNDUP FOR ARKANSAS
NATIONAL WEATHER SERVICE LITTLE ROCK AR
300 PM CDT WED MAY 04 2016

NOTE: "FAIR" INDICATES FEW OR NO CLOUDS BELOW 12,000 FEET WITH NO
SIGNIFICANT WEATHER AND/OR OBSTRUCTIONS TO VISIBILITY.

ARZ001-003-010-029-042100-
NORTHWEST ARKANSAS

CITY           SKY/WX    TMP DP  RH WIND       PRES   REMARKS
FAYETTEVILLE   SUNNY     73  45  36 NW17G24   29.93S
FORT SMITH     SUNNY     79  38  22 NW20G30   29.90R
HARRISON       SUNNY     72  40  31 NW12G23   29.90S
BENTONVILLE    SUNNY     72  37  28 NW10G17   29.95S
ROGERS         SUNNY     70  39  32 N14G20    29.95R
SILOAM SPGS    SUNNY     72  43  35 NW18      29.96S
HIGHFILL       SUNNY     75  40  28 N18       29.94S
SPRINGDALE     SUNNY     72  37  28 NW17G29   29.95S
$$

ARZ004-005-016-042100-
NORTH CENTRAL ARKANSAS

CITY           SKY/WX    TMP DP  RH WIND       PRES   REMARKS
BATESVILLE     SUNNY     77  39  25 NW13G21   29.82S
FLIPPIN        SUNNY    N/A N/A N/A N9G21     29.83F
MTN HOME       SUNNY     73  37  27 N9G17     29.85S
$$

ARZ040-041-042100-
WEST CENTRAL ARKANSAS

CITY           SKY/WX    TMP DP  RH WIND       PRES   REMARKS
MENA           SUNNY     81  52  36 W16G22    29.92F
MOUNT IDA      SUNNY     79  48  33 NW8G22    29.86F
$$

ARZ009-017-025-026-028-042100-
NORTHEAST ARKANSAS

CITY           SKY/WX    TMP DP  RH WIND       PRES   REMARKS
CORNING          N/A     75  45  33 NW15G24   29.79S
JONESBORO      LGT RAIN  77  42  28 NW9G29    29.78S
NEWPORT        SUNNY     77  40  26 NW18G28   29.81S
WALNUT RIDGE   SUNNY     77  43  29 NW23      29.79S
BLYTHEVILLE    MOSUNNY   73  49  42 N17G28    29.77S
NW BLYTHEVILLE PTSUNNY   77  46  33 N15G25    29.77S
$$

ARZ022-023-033-042-044-042100-
CENTRAL ARKANSAS

CITY           SKY/WX    TMP DP  RH WIND       PRES   REMARKS
LITTLE ROCK    MOSUNNY   81  47  30 W17G31    29.83F
N LITTLE ROCK    N/A     76  52  41 NW9G23    29.82F
JACKSONVILLE   SUNNY     80  53  38 W15G26    29.80F
SEARCY         CLOUDY    79  47  32 NW13G23   29.82S
HOT SPRINGS    SUNNY     80  48  32 W15G25    29.86F
RUSSELLVILLE   SUNNY     80  43  26 NW16G33   29.84S
CLINTON        FAIR      77  37  24 NW12G22   29.85S
$$

ARZ036-042100-
EAST ARKANSAS

CITY           SKY/WX    TMP DP  RH WIND       PRES   REMARKS
WEST MEMPHIS   PTSUNNY   76  55  48 NW12G17   29.77F
$$

ARZ050-053-066-070-073-042100-
SOUTHWEST ARKANSAS

CITY           SKY/WX    TMP DP  RH WIND       PRES   REMARKS
ARKADELPHIA    FAIR      80  56  43 W10       29.86F
CAMDEN         SUNNY     81  48  32 W12G21    29.88F
TEXARKANA      SUNNY     79  48  33 W14G28    29.92F
EL DORADO      LGT RAIN  79  49  34 W9G25     29.90F
DE QUEEN       SUNNY     79  51  37 NW13G20   29.89F
$$

ARZ056-057-069-042100-
SOUTHEAST ARKANSAS

CITY           SKY/WX    TMP DP  RH WIND       PRES   REMARKS
PINE BLUFF     SUNNY     79  49  34 NW18      29.83F
STUTTGART      SUNNY     79  54  41 W23G29    29.82S
MONTICELLO     SUNNY     79  51  37 NW9G22    29.84F

$$






USA.gov is the U.S. government's official web portal to all federal, state and local government web resources and services.